Time,TemperatureF,DewpointF,PressureIn,WindDirection,WindDirectionDegrees,WindSpeedMPH,WindSpeedGustMPH,Humidity,HourlyPrecipIn,Conditions,Clouds,dailyrainin,SoftwareType,DateUTC
2013-12-05 00:00:00,36.0,12.8,30.11,ESE,116,0.0,1.0,38,0.00,,,0.00,Wunderground v.1.15,2013-12-05 08:00:00,
2013-12-05 00:05:00,36.4,12.6,30.11,ESE,116,0.0,1.0,37,0.00,,,0.00,Wunderground v.1.15,2013-12-05 08:05:00,
2013-12-05 00:10:00,36.6,12.7,30.11,ESE,116,0.0,1.0,37,0.00,,,0.00,Wunderground v.1.15,2013-12-05 08:10:00,
2013-12-05 00:15:00,36.7,12.8,30.11,ESE,116,0.0,3.0,37,0.00,,,0.00,Wunderground v.1.15,2013-12-05 08:15:00,
2013-12-05 00:20:00,36.8,12.9,30.12,ESE,116,0.0,1.0,37,0.00,,,0.00,Wunderground v.1.15,2013-12-05 08:20:00,
2013-12-05 00:30:00,37.0,13.1,30.11,ESE,116,0.0,1.0,37,0.00,,,0.00,Wunderground v.1.15,2013-12-05 08:30:00,
2013-12-05 00:35:00,36.9,13.0,30.11,ESE,116,0.0,2.0,37,0.00,,,0.00,Wunderground v.1.15,2013-12-05 08:35:00,
2013-12-05 00:40:00,36.8,12.9,30.11,ESE,116,0.0,0.0,37,0.00,,,0.00,Wunderground v.1.15,2013-12-05 08:40:00,
2013-12-05 00:45:00,36.8,12.9,30.11,ESE,116,0.0,1.0,37,0.00,,,0.00,Wunderground v.1.15,2013-12-05 08:45:00,
2013-12-05 00:55:00,36.7,12.8,30.11,ESE,116,0.0,2.0,37,0.00,,,0.00,Wunderground v.1.15,2013-12-05 08:55:00,
2013-12-05 01:00:00,36.6,13.4,30.11,ESE,116,0.0,1.0,38,0.00,,,0.00,Wunderground v.1.15,2013-12-05 09:00:00,
2013-12-05 01:05:00,36.8,12.9,30.11,ESE,116,0.0,1.0,37,0.00,,,0.00,Wunderground v.1.15,2013-12-05 09:05:00,
2013-12-05 01:10:00,36.6,13.4,30.11,ESE,116,0.0,0.0,38,0.00,,,0.00,Wunderground v.1.15,2013-12-05 09:10:00,
2013-12-05 01:20:00,35.9,13.9,30.11,ESE,116,0.0,0.0,40,0.00,,,0.00,Wunderground v.1.15,2013-12-05 09:20:00,
2013-12-05 01:25:00,35.7,13.7,30.11,ESE,116,0.0,0.0,40,0.00,,,0.00,Wunderground v.1.15,2013-12-05 09:25:00,
2013-12-05 01:30:00,35.6,13.6,30.11,ESE,116,0.0,1.0,40,0.00,,,0.00,Wunderground v.1.15,2013-12-05 09:30:00,
2013-12-05 01:40:00,35.6,13.0,30.12,ESE,116,0.0,1.0,39,0.00,,,0.00,Wunderground v.1.15,2013-12-05 09:40:00,
2013-12-05 01:45:00,35.7,13.7,30.12,ESE,116,0.0,1.0,40,0.00,,,0.00,Wunderground v.1.15,2013-12-05 09:45:00,
2013-12-05 01:50:00,35.5,15.7,30.12,ESE,116,0.0,0.0,44,0.00,,,0.00,Wunderground v.1.15,2013-12-05 09:50:00,
2013-12-05 01:55:00,34.6,14.9,30.12,ESE,116,0.0,0.0,44,0.00,,,0.00,Wunderground v.1.15,2013-12-05 09:55:00,
2013-12-05 02:00:00,34.1,14.4,30.12,ESE,116,0.0,0.0,44,0.00,,,0.00,Wunderground v.1.15,2013-12-05 10:00:00,
2013-12-05 02:10:00,33.5,14.4,30.12,ESE,116,0.0,0.0,45,0.00,,,0.00,Wunderground v.1.15,2013-12-05 10:10:00,
2013-12-05 02:15:00,33.5,14.4,30.13,ESE,116,0.0,0.0,45,0.00,,,0.00,Wunderground v.1.15,2013-12-05 10:15:00,
2013-12-05 02:20:00,33.5,14.4,30.12,ESE,116,0.0,0.0,45,0.00,,,0.00,Wunderground v.1.15,2013-12-05 10:20:00,
2013-12-05 02:25:00,33.7,14.1,30.13,ESE,116,0.0,0.0,44,0.00,,,0.00,Wunderground v.1.15,2013-12-05 10:25:00,
2013-12-05 02:35:00,34.1,14.9,30.12,ESE,116,0.0,1.0,45,0.00,,,0.00,Wunderground v.1.15,2013-12-05 10:35:00,
2013-12-05 02:40:00,34.4,14.2,30.13,ESE,116,0.0,0.0,43,0.00,,,0.00,Wunderground v.1.15,2013-12-05 10:40:00,
2013-12-05 02:45:00,34.8,14.0,30.12,ESE,116,0.0,0.0,42,0.00,,,0.00,Wunderground v.1.15,2013-12-05 10:45:00,
2013-12-05 02:50:00,34.8,14.5,30.12,ESE,116,0.0,0.0,43,0.00,,,0.00,Wunderground v.1.15,2013-12-05 10:50:00,
2013-12-05 02:55:00,34.2,15.5,30.12,ESE,116,0.0,0.0,46,0.00,,,0.00,Wunderground v.1.15,2013-12-05 10:55:00,
2013-12-05 03:00:00,33.1,14.0,30.12,ESE,116,0.0,0.0,45,0.00,,,0.00,Wunderground v.1.15,2013-12-05 11:00:00,
2013-12-05 03:05:00,32.9,13.9,30.12,ESE,116,0.0,0.0,45,0.00,,,0.00,Wunderground v.1.15,2013-12-05 11:05:00,
2013-12-05 03:10:00,33.1,14.0,30.12,ESE,116,0.0,1.0,45,0.00,,,0.00,Wunderground v.1.15,2013-12-05 11:10:00,
2013-12-05 03:15:00,33.3,13.7,30.12,ESE,116,0.0,3.0,44,0.00,,,0.00,Wunderground v.1.15,2013-12-05 11:15:00,
2013-12-05 03:25:00,33.1,14.0,30.12,ESE,116,0.0,2.0,45,0.00,,,0.00,Wunderground v.1.15,2013-12-05 11:25:00,
2013-12-05 03:30:00,33.0,13.9,30.12,ESE,116,0.0,1.0,45,0.00,,,0.00,Wunderground v.1.15,2013-12-05 11:30:00,
2013-12-05 03:35:00,32.9,13.3,30.12,ESE,116,0.0,1.0,44,0.00,,,0.00,Wunderground v.1.15,2013-12-05 11:35:00,
2013-12-05 03:45:00,32.9,13.3,30.12,ESE,116,0.0,1.0,44,0.00,,,0.00,Wunderground v.1.15,2013-12-05 11:45:00,
2013-12-05 03:50:00,32.7,14.2,30.12,ESE,116,0.0,0.0,46,0.00,,,0.00,Wunderground v.1.15,2013-12-05 11:50:00,
2013-12-05 03:55:00,32.3,14.3,30.12,ESE,116,0.0,0.0,47,0.00,,,0.00,Wunderground v.1.15,2013-12-05 11:55:00,
2013-12-05 04:05:00,31.5,13.6,30.12,ESE,116,0.0,0.0,47,0.00,,,0.00,Wunderground v.1.15,2013-12-05 12:05:00,
2013-12-05 04:10:00,31.4,13.5,30.12,ESE,116,0.0,0.0,47,0.00,,,0.00,Wunderground v.1.15,2013-12-05 12:10:00,
2013-12-05 04:15:00,31.5,13.1,30.12,ESE,116,0.0,0.0,46,0.00,,,0.00,Wunderground v.1.15,2013-12-05 12:15:00,
2013-12-05 04:20:00,31.7,13.3,30.13,ESE,116,0.0,0.0,46,0.00,,,0.00,Wunderground v.1.15,2013-12-05 12:20:00,
2013-12-05 04:30:00,31.8,12.8,30.13,ESE,116,0.0,1.0,45,0.00,,,0.00,Wunderground v.1.15,2013-12-05 12:30:00,
2013-12-05 04:35:00,31.9,12.4,30.13,ESE,116,0.0,1.0,44,0.00,,,0.00,Wunderground v.1.15,2013-12-05 12:35:00,
2013-12-05 04:40:00,32.2,13.2,30.13,ESE,116,0.0,2.0,45,0.00,,,0.00,Wunderground v.1.15,2013-12-05 12:40:00,
2013-12-05 04:50:00,32.6,12.5,30.13,ESE,116,0.0,2.0,43,0.00,,,0.00,Wunderground v.1.15,2013-12-05 12:50:00,
2013-12-05 04:55:00,32.8,13.2,30.13,ESE,116,0.0,2.0,44,0.00,,,0.00,Wunderground v.1.15,2013-12-05 12:55:00,
2013-12-05 05:00:00,32.8,13.2,30.13,ESE,116,0.0,1.0,44,0.00,,,0.00,Wunderground v.1.15,2013-12-05 13:00:00,
2013-12-05 05:10:00,33.0,12.9,30.13,ESE,116,0.0,1.0,43,0.00,,,0.00,Wunderground v.1.15,2013-12-05 13:10:00,
2013-12-05 05:15:00,33.1,11.9,30.13,ESE,116,0.0,1.0,41,0.00,,,0.00,Wunderground v.1.15,2013-12-05 13:15:00,
2013-12-05 05:20:00,33.0,12.4,30.13,ESE,116,0.0,1.0,42,0.00,,,0.00,Wunderground v.1.15,2013-12-05 13:20:00,
2013-12-05 05:25:00,32.9,12.3,30.13,ESE,116,0.0,1.0,42,0.00,,,0.00,Wunderground v.1.15,2013-12-05 13:25:00,
2013-12-05 05:30:00,32.6,11.5,30.13,ESE,116,0.0,0.0,41,0.00,,,0.00,Wunderground v.1.15,2013-12-05 13:30:00,
2013-12-05 05:35:00,32.2,12.2,30.14,ESE,116,0.0,0.0,43,0.00,,,0.00,Wunderground v.1.15,2013-12-05 13:35:00,
2013-12-05 05:40:00,31.8,11.8,30.14,ESE,116,0.0,0.0,43,0.00,,,0.00,Wunderground v.1.15,2013-12-05 13:40:00,
2013-12-05 05:50:00,31.6,11.6,30.14,ESE,116,0.0,0.0,43,0.00,,,0.00,Wunderground v.1.15,2013-12-05 13:50:00,
2013-12-05 05:55:00,31.6,11.6,30.14,ESE,116,0.0,0.0,43,0.00,,,0.00,Wunderground v.1.15,2013-12-05 13:55:00,
2013-12-05 06:00:00,31.6,12.2,30.14,ESE,116,0.0,0.0,44,0.00,,,0.00,Wunderground v.1.15,2013-12-05 14:00:00,
2013-12-05 06:10:00,32.0,11.5,30.14,ESE,116,0.0,0.0,42,0.00,,,0.00,Wunderground v.1.15,2013-12-05 14:10:00,
2013-12-05 06:15:00,31.9,12.4,30.14,ESE,116,0.0,0.0,44,0.00,,,0.00,Wunderground v.1.15,2013-12-05 14:15:00,
2013-12-05 06:20:00,31.6,13.2,30.14,ESE,116,0.0,0.0,46,0.00,,,0.00,Wunderground v.1.15,2013-12-05 14:20:00,
2013-12-05 06:25:00,31.3,12.9,30.15,ESE,116,0.0,0.0,46,0.00,,,0.00,Wunderground v.1.15,2013-12-05 14:25:00,
2013-12-05 06:30:00,31.1,12.2,30.14,ESE,116,0.0,0.0,45,0.00,,,0.00,Wunderground v.1.15,2013-12-05 14:30:00,
2013-12-05 06:35:00,31.0,12.6,30.15,ESE,116,0.0,0.0,46,0.00,,,0.00,Wunderground v.1.15,2013-12-05 14:35:00,
2013-12-05 06:45:00,30.1,13.2,30.15,ESE,116,0.0,0.0,49,0.00,,,0.00,Wunderground v.1.15,2013-12-05 14:45:00,
2013-12-05 06:50:00,30.0,13.6,30.15,ESE,116,0.0,0.0,50,0.00,,,0.00,Wunderground v.1.15,2013-12-05 14:50:00,
2013-12-05 07:00:00,29.8,13.9,30.15,ESE,116,0.0,0.0,51,0.00,,,0.00,Wunderground v.1.15,2013-12-05 15:00:00,
2013-12-05 07:05:00,29.8,13.9,30.16,ESE,116,0.0,0.0,51,0.00,,,0.00,Wunderground v.1.15,2013-12-05 15:05:00,
2013-12-05 07:10:00,29.9,13.9,30.16,ESE,116,0.0,0.0,51,0.00,,,0.00,Wunderground v.1.15,2013-12-05 15:10:00,
2013-12-05 07:15:00,30.1,14.1,30.16,ESE,116,0.0,0.0,51,0.00,,,0.00,Wunderground v.1.15,2013-12-05 15:15:00,
2013-12-05 07:20:00,30.6,13.2,30.16,ESE,116,0.0,0.0,48,0.00,,,0.00,Wunderground v.1.15,2013-12-05 15:20:00,
2013-12-05 07:25:00,31.3,14.3,30.16,ESE,116,0.0,0.0,49,0.00,,,0.00,Wunderground v.1.15,2013-12-05 15:25:00,
2013-12-05 07:30:00,31.8,14.8,30.16,ESE,116,0.0,0.0,49,0.00,,,0.00,Wunderground v.1.15,2013-12-05 15:30:00,
2013-12-05 07:35:00,32.1,15.1,30.17,ESE,116,0.0,0.0,49,0.00,,,0.00,Wunderground v.1.15,2013-12-05 15:35:00,
2013-12-05 07:45:00,32.3,14.8,30.17,ESE,116,0.0,0.0,48,0.00,,,0.00,Wunderground v.1.15,2013-12-05 15:45:00,
2013-12-05 07:50:00,32.6,14.1,30.17,ESE,116,0.0,0.0,46,0.00,,,0.00,Wunderground v.1.15,2013-12-05 15:50:00,
2013-12-05 07:55:00,32.9,15.3,30.17,ESE,116,0.0,0.0,48,0.00,,,0.00,Wunderground v.1.15,2013-12-05 15:55:00,
2013-12-05 08:00:00,33.3,16.2,30.17,ESE,116,0.0,0.0,49,0.00,,,0.00,Wunderground v.1.15,2013-12-05 16:00:00,
2013-12-05 08:10:00,34.0,17.3,30.17,ESE,116,0.0,0.0,50,0.00,,,0.00,Wunderground v.1.15,2013-12-05 16:10:00,
2013-12-05 08:15:00,34.4,16.2,30.17,ESE,116,0.0,0.0,47,0.00,,,0.00,Wunderground v.1.15,2013-12-05 16:15:00,
2013-12-05 08:20:00,35.4,18.1,30.17,ESE,116,0.0,0.0,49,0.00,,,0.00,Wunderground v.1.15,2013-12-05 16:20:00,
2013-12-05 08:25:00,36.7,18.8,30.17,ESE,117,0.0,0.0,48,0.00,,,0.00,Wunderground v.1.15,2013-12-05 16:25:00,
2013-12-05 08:30:00,37.5,18.1,30.18,ESE,116,0.0,0.0,45,0.00,,,0.00,Wunderground v.1.15,2013-12-05 16:30:00,
2013-12-05 08:35:00,38.4,18.4,30.18,ESE,116,0.0,1.0,44,0.00,,,0.00,Wunderground v.1.15,2013-12-05 16:35:00,
2013-12-05 08:40:00,39.1,19.0,30.17,ESE,116,0.0,0.0,44,0.00,,,0.00,Wunderground v.1.15,2013-12-05 16:40:00,
2013-12-05 08:45:00,39.5,19.4,30.17,ESE,116,0.0,0.0,44,0.00,,,0.00,Wunderground v.1.15,2013-12-05 16:45:00,
2013-12-05 08:50:00,39.5,18.3,30.18,ESE,116,0.0,1.0,42,0.00,,,0.00,Wunderground v.1.15,2013-12-05 16:50:00,
2013-12-05 09:00:00,39.5,17.1,30.18,ESE,116,0.0,1.0,40,0.00,,,0.00,Wunderground v.1.15,2013-12-05 17:00:00,
2013-12-05 09:05:00,39.6,16.0,30.18,ESE,117,0.0,1.0,38,0.00,,,0.00,Wunderground v.1.15,2013-12-05 17:05:00,
2013-12-05 09:10:00,39.6,15.4,30.18,ESE,116,0.0,1.0,37,0.00,,,0.00,Wunderground v.1.15,2013-12-05 17:10:00,
2013-12-05 09:15:00,39.7,18.5,30.19,ESE,116,1.0,2.0,42,0.00,,,0.00,Wunderground v.1.15,2013-12-05 17:15:00,
2013-12-05 09:20:00,40.3,17.3,30.19,ESE,116,1.0,3.0,39,0.00,,,0.00,Wunderground v.1.15,2013-12-05 17:20:00,
2013-12-05 09:25:00,40.6,18.1,30.19,ESE,116,1.0,3.0,40,0.00,,,0.00,Wunderground v.1.15,2013-12-05 17:25:00,
2013-12-05 09:30:00,40.8,15.9,30.19,ESE,117,1.0,3.0,36,0.00,,,0.00,Wunderground v.1.15,2013-12-05 17:30:00,
2013-12-05 09:35:00,40.7,14.5,30.19,ESE,117,1.0,4.0,34,0.00,,,0.00,Wunderground v.1.15,2013-12-05 17:35:00,
2013-12-05 09:45:00,41.1,15.5,30.20,ESE,117,1.0,4.0,35,0.00,,,0.00,Wunderground v.1.15,2013-12-05 17:45:00,
2013-12-05 09:50:00,40.7,14.5,30.20,ESE,111,2.0,5.0,34,0.00,,,0.00,Wunderground v.1.15,2013-12-05 17:50:00,
2013-12-05 09:55:00,41.0,14.7,30.20,ESE,117,2.0,7.0,34,0.00,,,0.00,Wunderground v.1.15,2013-12-05 17:55:00,
2013-12-05 10:00:00,41.0,14.1,30.20,SSE,150,2.0,7.0,33,0.00,,,0.00,Wunderground v.1.15,2013-12-05 18:00:00,
2013-12-05 10:05:00,40.9,13.3,30.20,ESE,116,3.0,9.0,32,0.00,,,0.00,Wunderground v.1.15,2013-12-05 18:05:00,
2013-12-05 10:15:00,41.3,13.6,30.19,SSE,155,2.0,4.0,32,0.00,,,0.00,Wunderground v.1.15,2013-12-05 18:15:00,
2013-12-05 10:20:00,41.2,14.2,30.19,SSE,155,2.0,2.0,33,0.00,,,0.00,Wunderground v.1.15,2013-12-05 18:20:00,
2013-12-05 10:25:00,41.6,13.9,30.19,SSE,150,2.0,4.0,32,0.00,,,0.00,Wunderground v.1.15,2013-12-05 18:25:00,
2013-12-05 10:30:00,41.3,13.6,30.19,SE,126,3.0,3.0,32,0.00,,,0.00,Wunderground v.1.15,2013-12-05 18:30:00,
2013-12-05 10:35:00,41.4,13.7,30.19,SSE,163,3.0,4.0,32,0.00,,,0.00,Wunderground v.1.15,2013-12-05 18:35:00,
2013-12-05 10:45:00,42.0,14.2,30.19,SE,140,3.0,7.0,32,0.00,,,0.00,Wunderground v.1.15,2013-12-05 18:45:00,
2013-12-05 10:50:00,42.4,15.3,30.19,SSE,159,2.0,2.0,33,0.00,,,0.00,Wunderground v.1.15,2013-12-05 18:50:00,
2013-12-05 10:55:00,42.6,14.8,30.19,SE,146,2.0,6.0,32,0.00,,,0.00,Wunderground v.1.15,2013-12-05 18:55:00,
2013-12-05 11:00:00,43.3,14.6,30.19,SE,125,2.0,2.0,31,0.00,,,0.00,Wunderground v.1.15,2013-12-05 19:00:00,
2013-12-05 11:05:00,43.3,14.6,30.19,SSE,150,2.0,6.0,31,0.00,,,0.00,Wunderground v.1.15,2013-12-05 19:05:00,
2013-12-05 11:10:00,43.0,15.1,30.18,SSE,165,3.0,3.0,32,0.00,,,0.00,Wunderground v.1.15,2013-12-05 19:10:00,
2013-12-05 11:20:00,44.3,14.8,30.18,ESE,102,2.0,2.0,30,0.00,,,0.00,Wunderground v.1.15,2013-12-05 19:20:00,
2013-12-05 11:25:00,44.2,14.7,30.18,South,173,1.0,5.0,30,0.00,,,0.00,Wunderground v.1.15,2013-12-05 19:25:00,
2013-12-05 11:30:00,44.0,15.3,30.18,ENE,77,1.0,5.0,31,0.00,,,0.00,Wunderground v.1.15,2013-12-05 19:30:00,
2013-12-05 11:35:00,44.1,15.3,30.18,SE,141,1.0,7.0,31,0.00,,,0.00,Wunderground v.1.15,2013-12-05 19:35:00,
2013-12-05 11:45:00,44.3,14.0,30.18,SSE,165,2.0,3.0,29,0.00,,,0.00,Wunderground v.1.15,2013-12-05 19:45:00,
2013-12-05 11:50:00,44.2,13.9,30.18,SSE,156,3.0,3.0,29,0.00,,,0.00,Wunderground v.1.15,2013-12-05 19:50:00,
2013-12-05 12:00:00,45.2,14.8,30.17,East,82,1.0,3.0,29,0.00,,,0.00,Wunderground v.1.15,2013-12-05 20:00:00,
2013-12-05 12:05:00,45.8,14.5,30.17,SE,140,1.0,4.0,28,0.00,,,0.00,Wunderground v.1.15,2013-12-05 20:05:00,
2013-12-05 12:10:00,45.4,13.3,30.17,ESE,111,2.0,7.0,27,0.00,,,0.00,Wunderground v.1.15,2013-12-05 20:10:00,
2013-12-05 12:15:00,45.5,14.2,30.17,SE,143,2.0,7.0,28,0.00,,,0.00,Wunderground v.1.15,2013-12-05 20:15:00,
2013-12-05 12:20:00,45.6,13.5,30.17,SE,125,2.0,2.0,27,0.00,,,0.00,Wunderground v.1.15,2013-12-05 20:20:00,
2013-12-05 12:25:00,45.5,15.0,30.17,ENE,76,2.0,8.0,29,0.00,,,0.00,Wunderground v.1.15,2013-12-05 20:25:00,
2013-12-05 12:30:00,46.0,13.8,30.17,SSE,157,2.0,6.0,27,0.00,,,0.00,Wunderground v.1.15,2013-12-05 20:30:00,
2013-12-05 12:40:00,45.2,14.0,30.17,SE,128,3.0,3.0,28,0.00,,,0.00,Wunderground v.1.15,2013-12-05 20:40:00,
2013-12-05 12:45:00,46.0,15.5,30.17,East,90,2.0,7.0,29,0.00,,,0.00,Wunderground v.1.15,2013-12-05 20:45:00,
2013-12-05 12:50:00,46.0,14.7,30.16,SE,134,2.0,2.0,28,0.00,,,0.00,Wunderground v.1.15,2013-12-05 20:50:00,
2013-12-05 12:55:00,46.0,14.7,30.16,SE,142,2.0,5.0,28,0.00,,,0.00,Wunderground v.1.15,2013-12-05 20:55:00,
2013-12-05 13:00:00,45.4,13.3,30.16,ESE,122,2.0,2.0,27,0.00,,,0.00,Wunderground v.1.15,2013-12-05 21:00:00,
2013-12-05 13:10:00,45.2,14.0,30.16,South,175,2.0,6.0,28,0.00,,,0.00,Wunderground v.1.15,2013-12-05 21:10:00,
2013-12-05 13:15:00,45.1,13.9,30.16,SE,144,2.0,8.0,28,0.00,,,0.00,Wunderground v.1.15,2013-12-05 21:15:00,
2013-12-05 13:20:00,45.4,14.9,30.16,SSE,163,2.0,2.0,29,0.00,,,0.00,Wunderground v.1.15,2013-12-05 21:20:00,
2013-12-05 13:30:00,46.0,14.7,30.15,SE,133,1.0,1.0,28,0.00,,,0.00,Wunderground v.1.15,2013-12-05 21:30:00,
2013-12-05 13:35:00,46.1,15.6,30.15,ESE,107,1.0,4.0,29,0.00,,,0.00,Wunderground v.1.15,2013-12-05 21:35:00,
2013-12-05 13:40:00,46.4,15.0,30.15,SSE,164,1.0,4.0,28,0.00,,,0.00,Wunderground v.1.15,2013-12-05 21:40:00,
2013-12-05 13:45:00,46.5,15.9,30.15,SSE,165,1.0,6.0,29,0.00,,,0.00,Wunderground v.1.15,2013-12-05 21:45:00,
2013-12-05 13:50:00,46.4,15.0,30.15,SE,133,2.0,5.0,28,0.00,,,0.00,Wunderground v.1.15,2013-12-05 21:50:00,
2013-12-05 14:00:00,45.8,15.3,30.15,SSE,163,2.0,2.0,29,0.00,,,0.00,Wunderground v.1.15,2013-12-05 22:00:00,
2013-12-05 14:05:00,46.2,16.4,30.15,SSE,162,1.0,6.0,30,0.00,,,0.00,Wunderground v.1.15,2013-12-05 22:05:00,
2013-12-05 14:10:00,46.6,16.0,30.14,SE,142,1.0,1.0,29,0.00,,,0.00,Wunderground v.1.15,2013-12-05 22:10:00,
2013-12-05 14:15:00,46.8,16.2,30.14,SE,142,1.0,4.0,29,0.00,,,0.00,Wunderground v.1.15,2013-12-05 22:15:00,
2013-12-05 14:25:00,46.7,16.1,30.14,SSE,150,1.0,4.0,29,0.00,,,0.00,Wunderground v.1.15,2013-12-05 22:25:00,
2013-12-05 14:30:00,46.3,15.7,30.15,SSE,153,2.0,2.0,29,0.00,,,0.00,Wunderground v.1.15,2013-12-05 22:30:00,
2013-12-05 14:40:00,46.1,15.6,30.14,SSE,150,1.0,1.0,29,0.00,,,0.00,Wunderground v.1.15,2013-12-05 22:40:00,
2013-12-05 14:45:00,46.0,16.3,30.14,SSE,151,1.0,6.0,30,0.00,,,0.00,Wunderground v.1.15,2013-12-05 22:45:00,
2013-12-05 14:50:00,46.0,16.3,30.14,SSE,151,1.0,1.0,30,0.00,,,0.00,Wunderground v.1.15,2013-12-05 22:50:00,
2013-12-05 15:00:00,45.9,16.9,30.15,SSE,150,1.0,4.0,31,0.00,,,0.00,Wunderground v.1.15,2013-12-05 23:00:00,
2013-12-05 15:05:00,46.0,16.3,30.15,SSE,150,0.0,4.0,30,0.00,,,0.00,Wunderground v.1.15,2013-12-05 23:05:00,
2013-12-05 15:10:00,46.0,16.3,30.14,SSE,150,0.0,2.0,30,0.00,,,0.00,Wunderground v.1.15,2013-12-05 23:10:00,
2013-12-05 15:15:00,46.1,17.1,30.14,SSE,150,0.0,2.0,31,0.00,,,0.00,Wunderground v.1.15,2013-12-05 23:15:00,
2013-12-05 15:25:00,46.1,16.3,30.14,SSE,150,0.0,3.0,30,0.00,,,0.00,Wunderground v.1.15,2013-12-05 23:25:00,
2013-12-05 15:30:00,46.1,17.1,30.14,SSE,150,0.0,3.0,31,0.00,,,0.00,Wunderground v.1.15,2013-12-05 23:30:00,
2013-12-05 15:35:00,45.9,16.9,30.14,SSE,150,0.0,3.0,31,0.00,,,0.00,Wunderground v.1.15,2013-12-05 23:35:00,
2013-12-05 15:40:00,45.8,16.8,30.14,SSE,150,0.0,2.0,31,0.00,,,0.00,Wunderground v.1.15,2013-12-05 23:40:00,
2013-12-05 15:50:00,45.6,17.4,30.14,SSE,150,0.0,3.0,32,0.00,,,0.00,Wunderground v.1.15,2013-12-05 23:50:00,
2013-12-05 15:55:00,45.5,18.0,30.15,SSE,150,0.0,3.0,33,0.00,,,0.00,Wunderground v.1.15,2013-12-05 23:55:00,
2013-12-05 16:00:00,45.3,17.1,30.15,SSE,150,0.0,0.0,32,0.00,,,0.00,Wunderground v.1.15,2013-12-06 00:00:00,
2013-12-05 16:05:00,45.1,17.0,30.15,SSE,150,0.0,1.0,32,0.00,,,0.00,Wunderground v.1.15,2013-12-06 00:05:00,
2013-12-05 16:15:00,44.7,17.3,30.15,SSE,150,0.0,2.0,33,0.00,,,0.00,Wunderground v.1.15,2013-12-06 00:15:00,
2013-12-05 16:20:00,44.5,17.1,30.15,SSE,150,0.0,1.0,33,0.00,,,0.00,Wunderground v.1.15,2013-12-06 00:20:00,
2013-12-05 16:25:00,44.3,18.3,30.15,SSE,150,0.0,1.0,35,0.00,,,0.00,Wunderground v.1.15,2013-12-06 00:25:00,
2013-12-05 16:35:00,43.5,18.3,30.15,SSE,150,0.0,0.0,36,0.00,,,0.00,Wunderground v.1.15,2013-12-06 00:35:00,
2013-12-05 16:40:00,43.1,19.2,30.15,SSE,150,0.0,0.0,38,0.00,,,0.00,Wunderground v.1.15,2013-12-06 00:40:00,
2013-12-05 16:45:00,42.7,18.2,30.15,SSE,150,0.0,0.0,37,0.00,,,0.00,Wunderground v.1.15,2013-12-06 00:45:00,
2013-12-05 16:50:00,42.3,18.5,30.15,SSE,150,0.0,0.0,38,0.00,,,0.00,Wunderground v.1.15,2013-12-06 00:50:00,
2013-12-05 17:00:00,41.4,18.9,30.16,SSE,150,0.0,0.0,40,0.00,,,0.00,Wunderground v.1.15,2013-12-06 01:00:00,
2013-12-05 17:05:00,40.7,19.4,30.15,SSE,150,0.0,0.0,42,0.00,,,0.00,Wunderground v.1.15,2013-12-06 01:05:00,
2013-12-05 17:10:00,40.1,18.3,30.16,SSE,150,0.0,0.0,41,0.00,,,0.00,Wunderground v.1.15,2013-12-06 01:10:00,
2013-12-05 17:20:00,39.6,17.2,30.15,SSE,150,0.0,1.0,40,0.00,,,0.00,Wunderground v.1.15,2013-12-06 01:20:00,
2013-12-05 17:25:00,39.3,18.6,30.15,SSE,150,0.0,1.0,43,0.00,,,0.00,Wunderground v.1.15,2013-12-06 01:25:00,
2013-12-05 17:30:00,39.2,18.5,30.16,SSE,150,0.0,1.0,43,0.00,,,0.00,Wunderground v.1.15,2013-12-06 01:30:00,
2013-12-05 17:40:00,39.4,20.3,30.16,SSE,150,0.0,1.0,46,0.00,,,0.00,Wunderground v.1.15,2013-12-06 01:40:00,
2013-12-05 17:45:00,39.5,20.4,30.16,SSE,150,1.0,2.0,46,0.00,,,0.00,Wunderground v.1.15,2013-12-06 01:45:00,
2013-12-05 17:50:00,39.4,20.3,30.16,SSE,150,1.0,1.0,46,0.00,,,0.00,Wunderground v.1.15,2013-12-06 01:50:00,
2013-12-05 17:55:00,38.6,20.6,30.16,SSE,150,0.0,2.0,48,0.00,,,0.00,Wunderground v.1.15,2013-12-06 01:55:00,
2013-12-05 18:05:00,37.7,19.8,30.16,SSE,150,0.0,0.0,48,0.00,,,0.00,Wunderground v.1.15,2013-12-06 02:05:00,
2013-12-05 18:10:00,37.6,19.7,30.16,SSE,150,0.0,1.0,48,0.00,,,0.00,Wunderground v.1.15,2013-12-06 02:10:00,
2013-12-05 18:20:00,38.0,19.5,30.16,SSE,150,0.0,0.0,47,0.00,,,0.00,Wunderground v.1.15,2013-12-06 02:20:00,
2013-12-05 18:25:00,38.2,20.2,30.16,SSE,150,0.0,2.0,48,0.00,,,0.00,Wunderground v.1.15,2013-12-06 02:25:00,
2013-12-05 18:30:00,38.4,20.9,30.16,SSE,150,0.0,1.0,49,0.00,,,0.00,Wunderground v.1.15,2013-12-06 02:30:00,
2013-12-05 18:40:00,38.1,21.5,30.16,SSE,150,0.0,1.0,51,0.00,,,0.00,Wunderground v.1.15,2013-12-06 02:40:00,
2013-12-05 18:45:00,37.8,21.3,30.16,SSE,150,0.0,1.0,51,0.00,,,0.00,Wunderground v.1.15,2013-12-06 02:45:00,
2013-12-05 18:50:00,37.3,21.7,30.16,SSE,150,0.0,0.0,53,0.00,,,0.00,Wunderground v.1.15,2013-12-06 02:50:00,
2013-12-05 18:55:00,37.0,21.4,30.16,SSE,150,0.0,0.0,53,0.00,,,0.00,Wunderground v.1.15,2013-12-06 02:55:00,
2013-12-05 19:00:00,36.8,22.1,30.16,SSE,150,0.0,0.0,55,0.00,,,0.00,Wunderground v.1.15,2013-12-06 03:00:00,
2013-12-05 19:10:00,36.5,22.3,30.16,SSE,150,0.0,1.0,56,0.00,,,0.00,Wunderground v.1.15,2013-12-06 03:10:00,
2013-12-05 19:15:00,36.4,22.2,30.17,SSE,150,0.0,1.0,56,0.00,,,0.00,Wunderground v.1.15,2013-12-06 03:15:00,
2013-12-05 19:20:00,36.5,22.7,30.17,SSE,150,0.0,0.0,57,0.00,,,0.00,Wunderground v.1.15,2013-12-06 03:20:00,
2013-12-05 19:30:00,36.6,22.8,30.17,SSE,150,0.0,1.0,57,0.00,,,0.00,Wunderground v.1.15,2013-12-06 03:30:00,
2013-12-05 19:35:00,36.6,23.6,30.17,SSE,150,0.0,1.0,59,0.00,,,0.00,Wunderground v.1.15,2013-12-06 03:35:00,
2013-12-05 19:40:00,36.7,24.1,30.18,SSE,150,0.0,1.0,60,0.00,,,0.00,Wunderground v.1.15,2013-12-06 03:40:00,
2013-12-05 19:45:00,36.5,24.3,30.17,SSE,150,0.0,1.0,61,0.00,,,0.00,Wunderground v.1.15,2013-12-06 03:45:00,
2013-12-05 19:55:00,36.1,24.7,30.17,SSE,150,0.0,1.0,63,0.00,,,0.00,Wunderground v.1.15,2013-12-06 03:55:00,
2013-12-05 20:05:00,35.6,25.0,30.17,SSE,150,0.0,1.0,65,0.00,,,0.00,Wunderground v.1.15,2013-12-06 04:05:00,
2013-12-05 20:10:00,35.3,25.1,30.17,SSE,150,0.0,0.0,66,0.00,,,0.00,Wunderground v.1.15,2013-12-06 04:10:00,
2013-12-05 20:15:00,35.2,25.0,30.17,SSE,150,0.0,0.0,66,0.00,,,0.00,Wunderground v.1.15,2013-12-06 04:15:00,
2013-12-05 20:20:00,35.5,25.3,30.17,SSE,150,0.0,0.0,66,0.00,,,0.00,Wunderground v.1.15,2013-12-06 04:20:00,
2013-12-05 20:25:00,35.8,24.8,30.18,SSE,150,0.0,0.0,64,0.00,,,0.00,Wunderground v.1.15,2013-12-06 04:25:00,
2013-12-05 20:30:00,35.6,24.6,30.18,SSE,150,0.0,1.0,64,0.00,,,0.00,Wunderground v.1.15,2013-12-06 04:30:00,
2013-12-05 20:40:00,35.3,25.1,30.18,SSE,150,0.0,0.0,66,0.00,,,0.00,Wunderground v.1.15,2013-12-06 04:40:00,
2013-12-05 20:45:00,35.1,25.6,30.18,SSE,150,0.0,0.0,68,0.00,,,0.00,Wunderground v.1.15,2013-12-06 04:45:00,
2013-12-05 20:50:00,35.3,26.5,30.18,SSE,150,0.0,0.0,70,0.00,,,0.00,Wunderground v.1.15,2013-12-06 04:50:00,
2013-12-05 20:55:00,35.5,26.3,30.18,SSE,150,0.0,1.0,69,0.00,,,0.00,Wunderground v.1.15,2013-12-06 04:55:00,
2013-12-05 21:00:00,35.5,26.0,30.18,SSE,150,0.0,0.0,68,0.00,,,0.00,Wunderground v.1.15,2013-12-06 05:00:00,
2013-12-05 21:05:00,35.5,26.3,30.18,SSE,150,0.0,0.0,69,0.00,,,0.00,Wunderground v.1.15,2013-12-06 05:05:00,
2013-12-05 21:10:00,35.5,26.3,30.18,SSE,150,0.0,0.0,69,0.00,,,0.00,Wunderground v.1.15,2013-12-06 05:10:00,
2013-12-05 21:15:00,35.5,26.3,30.18,SSE,150,0.0,0.0,69,0.00,,,0.00,Wunderground v.1.15,2013-12-06 05:15:00,
2013-12-05 21:20:00,35.4,26.6,30.19,SSE,150,0.0,0.0,70,0.00,,,0.00,Wunderground v.1.15,2013-12-06 05:20:00,
2013-12-05 21:25:00,35.5,27.0,30.19,SSE,150,0.0,1.0,71,0.00,,,0.00,Wunderground v.1.15,2013-12-06 05:25:00,
2013-12-05 21:30:00,35.4,27.3,30.19,SSE,150,0.0,0.0,72,0.00,,,0.00,Wunderground v.1.15,2013-12-06 05:30:00,
2013-12-05 21:35:00,35.2,27.1,30.19,SSE,150,0.0,0.0,72,0.00,,,0.00,Wunderground v.1.15,2013-12-06 05:35:00,
2013-12-05 21:40:00,35.0,26.9,30.19,SSE,150,0.0,0.0,72,0.00,,,0.00,Wunderground v.1.15,2013-12-06 05:40:00,
2013-12-05 21:45:00,34.9,26.8,30.19,SSE,150,0.0,0.0,72,0.00,,,0.00,Wunderground v.1.15,2013-12-06 05:45:00,
2013-12-05 21:50:00,34.6,27.2,30.19,SSE,150,0.0,0.0,74,0.00,,,0.00,Wunderground v.1.15,2013-12-06 05:50:00,
2013-12-05 22:00:00,34.5,26.4,30.19,SSE,150,0.0,0.0,72,0.00,,,0.00,Wunderground v.1.15,2013-12-06 06:00:00,
2013-12-05 22:05:00,34.5,26.7,30.19,SSE,150,0.0,0.0,73,0.00,,,0.00,Wunderground v.1.15,2013-12-06 06:05:00,
2013-12-05 22:10:00,34.3,26.2,30.19,SSE,150,0.0,0.0,72,0.00,,,0.00,Wunderground v.1.15,2013-12-06 06:10:00,
2013-12-05 22:15:00,34.3,26.2,30.19,SSE,150,0.0,0.0,72,0.00,,,0.00,Wunderground v.1.15,2013-12-06 06:15:00,
2013-12-05 22:25:00,34.2,26.4,30.19,SSE,150,0.0,0.0,73,0.00,,,0.00,Wunderground v.1.15,2013-12-06 06:25:00,
2013-12-05 22:30:00,34.3,26.9,30.19,SSE,150,0.0,0.0,74,0.00,,,0.00,Wunderground v.1.15,2013-12-06 06:30:00,
2013-12-05 22:40:00,34.4,27.0,30.19,SSE,150,0.0,0.0,74,0.00,,,0.00,Wunderground v.1.15,2013-12-06 06:40:00,
2013-12-05 22:45:00,34.5,27.4,30.19,SSE,150,0.0,0.0,75,0.00,,,0.00,Wunderground v.1.15,2013-12-06 06:45:00,
2013-12-05 22:50:00,34.6,27.5,30.19,SSE,150,0.0,0.0,75,0.00,,,0.00,Wunderground v.1.15,2013-12-06 06:50:00,
2013-12-05 22:55:00,34.7,27.9,30.19,SSE,150,0.0,0.0,76,0.00,,,0.00,Wunderground v.1.15,2013-12-06 06:55:00,
2013-12-05 23:00:00,34.7,27.9,30.19,SSE,150,0.0,0.0,76,0.00,,,0.00,Wunderground v.1.15,2013-12-06 07:00:00,
2013-12-05 23:10:00,34.7,27.9,30.19,SSE,150,0.0,0.0,76,0.00,,,0.00,Wunderground v.1.15,2013-12-06 07:10:00,
2013-12-05 23:15:00,35.0,27.9,30.19,SSE,150,0.0,0.0,75,0.00,,,0.00,Wunderground v.1.15,2013-12-06 07:15:00,
2013-12-05 23:20:00,35.1,28.0,30.19,SSE,150,0.0,0.0,75,0.00,,,0.00,Wunderground v.1.15,2013-12-06 07:20:00,
2013-12-05 23:30:00,35.3,28.2,30.18,SSE,150,0.0,0.0,75,0.00,,,0.00,Wunderground v.1.15,2013-12-06 07:30:00,
2013-12-05 23:35:00,35.5,28.4,30.18,SSE,150,0.0,0.0,75,0.00,,,0.00,Wunderground v.1.15,2013-12-06 07:35:00,
2013-12-05 23:40:00,35.7,28.6,30.18,SSE,150,0.0,0.0,75,0.00,,,0.00,Wunderground v.1.15,2013-12-06 07:40:00,
2013-12-05 23:50:00,35.6,28.8,30.18,SSE,150,0.0,0.0,76,0.00,,,0.00,Wunderground v.1.15,2013-12-06 07:50:00,
2013-12-05 23:55:00,35.6,28.8,30.18,SSE,150,0.0,0.0,76,0.00,,,0.00,Wunderground v.1.15,2013-12-06 07:55:00,